Sarykemer

Kazakhstan     43˚00′27″N   71˚30′54″E
temp.,
°C
wind,
m/s
gust,
m/s
humid.,
%
clouds,
%
prec.,
mm/h
press.,
hPa
HPBL,
m
3 december, thu
thu300:00+1˚s236191 0.0 102823
03:00+1˚ssw236399 0.0 102822
06:00ssw236460 0.0 102922
09:00s126417 0.0 102922
12:00+4˚w116536 0.0 1028138
15:00+6˚nne11681 0.0 1027227
18:00+1˚ene22839 0.0 102922
21:00−1˚nnw018639 0.0 102921
4 december, fri
fri400:00−2˚n119038 0.0 102921
03:00−2˚n119282 0.0 102921
06:00−3˚n129685 0.0 102925
09:00−3˚n119796 0.3 103064
12:00−1˚n119099 0.6 1029213
15:00nne2289100 0.1 1028216
18:00−2˚nne2398100 0.9 1029145
21:00−2˚nne1298100 1.0 103061
5 december, sat
sat500:00−4˚nne119899 1.2 103021
03:00−4˚nne1198100 0.2 103061
06:00−4˚nnw229799 0.3 1031131
09:00−5˚nne2296100 0.1 1032114
12:00−4˚ne2288100 0.2 1031332
15:00−3˚ene3385100 0.0 1031447
18:00−4˚ene239096 0.1 103297
21:00−6˚ese128935 0.0 103321
6 december, sun
sun600:00−7˚sse118517 0.0 103221
03:00−7˚sse11800 0.0 103321
06:00−8˚se11720 0.0 103221
09:00−7˚s22590 0.0 103222
12:00ese12520 0.0 1031133
15:00+1˚ne236511 0.0 1029181
18:00−3˚ese117818 0.0 102921
21:00−3˚ssw236731 0.0 102821
7 december, mon
mon700:00−4˚ssw236115 0.0 102621
03:00−3˚sw2261100 0.0 102521
06:00−4˚wnw2276100 0.0 102436
09:00−6˚wnw229399 0.1 1028249
12:00−5˚nw218299 0.1 1028333
15:00−3˚n2175100 0.0 1029381
18:00−4˚ne0195100 0.8 103064
21:00−5˚ne1196100 1.1 103227